Showing default

HAWK-14B, 68436

Orbit data source: Space-Track

HAWK-14B, 68436 is a payload satellite owned by HawkEye 360 (US) in SSO that was launched on Mon, 30 Mar 2026 UTC via an FALCON 9 launch vehicle from the Air Force Western Test Range (AFWTR). Payload-class satellites include a variety of spacecraft equipped with specific instruments for various scientific and technological missions. These include communications satellites like Starlink; space stations such as the ISS; scientific satellites like the Hubble; Earth observation satellites from companies like Planet Labs, Umbra, and HawkEye 360; GPS; miniature CubeSats for education and research; and military/defense satellites.

Loading next visibility...
Identifier
68436, 2026-067W
Orbit
SSO
Country
Flag of USUS
Related business
Manufacturer
UTIAS-SFL
Mission
Operational Commercial Sigint
Bus & Motor
HAWK2G, Unknown motor
Mass
31 kg wet, 30 kg dry
Launch date (UTC)
2026-03-30 (5 months ago)
Launch vehicle
FALCON 9
Launch site
Air Force Western Test Range (AFWTR)
Object type
Payload
Rocket body
Debris
Shape & HBR
Box + 2 Pan, 1.0 m
Radar Cross Section
0.240 m², Medium (>0.1 m² and < 1m²)

Expand to show TLE details & history
Last TLE update: 1 day ago

TLE from 1 day ago
0 HAWK-14B
1 68436U 26067W   26234.83815241  .00003987  00000-0  19552-3 0  9999
2 68436  97.4598 192.3696 0003294 137.9100 222.2388 15.18686994 22059
Epoch: 2026-08-22T20:06Z
TLE epoch observation values (Epoch: 2026-08-22T20:06:56.368Z)
Latitude
0.00002°
Longitude
-80.50809°
Altitude
514.575 km
Speed
7.605 km/s
True Right ascension
12h 49m 28s
True Declination
0° 00' 00"
Sunlit
Object was in daylight at epoch
Visualization orbit readout
Latitude
Unknown
Longitude
Unknown
Altitude
Unknown
Speed
Unknown
Apparent Right ascension
Unknown
Apparent Declination
Unknown
Sunlit
N/A
Visualization observer readout
Local Sidereal Time
18:16:52
Azimuth
Unknown
Elevation
Unknown
Doppler factor
Unknown
Orbital elements
Apogee altitude
509.046 km
Perigee altitude
504.51 km
Semi-major axis
6,884.915 km
Eccentricity
0.00033
Inclination
97.4598°
RAAN
192.3696°
Arg. of periapsis
137.91°
True anomaly
222.21343°
Mean anomaly
222.2388°
Eccentric anomaly
222.22612°
Mean motion
3.79923 °/min
Orbital period
94.76 mins
BSTAR
0.00019552
Loading maneuver chart data...
Computing Atmospheric mass density...
Loading historical data...
Loading historical data...
Loading historical data...
Loading historical data...
Loading historical data...
Loading historical data...
Loading historical data...

Documentation

Showing up to 5 results
|